[Date Prev][Date Next][Thread Prev][Thread Next] - [Date Index][Thread Index][Author Index]

2 Line ISS Keps 12-24



ISS
1 25544U 98067A   01358.16950231  .00053518  00000-0  63538-3 0  8791
2 25544  51.6406 212.7456 0002746  63.2384  79.9308 15.60641889176723


----
Via the sarex mailing list at AMSAT.ORG courtesy of AMSAT-NA.
To unsubscribe, send "unsubscribe sarex" to Majordomo@amsat.org



AMSAT Top AMSAT Home